Temperature
9 8 8 9 9 9 9 8 8 9 10 9 9 9 10 11 11 11 11 11 11 11 11 11 12 12 12 12 12 12 12 12 13 13 13 13 13 13 13 14 14 14 14 14
9 8 9 10 10 9 9 8 8 9 10 9 9 9 10 11 10 11 11 11 11 11 11 11 11 11 11 12 12 12 12 12 12 13 13 13 13 13 13 14 13 14 14 14
8 9 10 9 9 9 9 9 8 8 9 10 9 9 10 10 11 11 11 11 10 10 10 10 11 11 11 11 12 12 12 12 12 12 12 13 13 13 13 13 13 13 13 14
9 10 9 9 9 9 8 9 9 9 8 8 9 8 9 10 10 10 10 10 10 10 10 10 10 10 11 11 11 11 12 12 12 12 12 12 12 12 12 13 13 13 13 13
8 9 9 8 9 9 9 10 9 9 9 8 9 8 9 9 9 10 10 10 10 10 10 10 10 10 10 10 11 11 11 11 12 12 12 12 12 12 12 12 12 12 12 12
9 9 9 8 9 9 9 9 9 9 8 8 9 9 8 8 9 9 9 9 9 9 9 9 9 10 10 10 11 11 11 11 11 11 11 11 12 12 12 12 12 12 12 12
8 9 9 9 8 9 9 8 7 8 8 9 10 9 8 8 8 9 9 9 9 9 9 9 9 9 10 10 10 10 10 11 11 11 11 11 11 12 12 12 12 12 12 12
7 7 9 9 8 8 8 8 7 7 8 9 9 9 8 8 8 9 8 8 8 8 8 8 9 9 9 9 9 10 10 10 10 10 10 11 11 11 11 11 11 11 11 11
7 7 9 9 9 9 8 8 8 7 8 8 9 9 8 8 8 8 8 8 7 7 8 8 8 8 9 9 9 9 9 9 10 10 10 10 10 10 10 10 10 10 11 11
7 7 8 9 9 9 9 9 8 8 8 8 9 8 7 7 7 8 7 7 7 7 7 7 7 7 8 8 8 9 9 9 9 9 9 10 10 10 10 10 10 10 10 10
8 7 8 8 8 8 8 8 8 8 8 8 8 8 8 7 7 7 7 7 7 7 7 7 7 7 7 7 8 8 8 8 9 9 9 9 9 9 9 9 9 9 9 9
8 7 7 8 9 8 8 9 8 7 8 8 7 7 8 7 7 7 7 7 7 6 6 6 6 7 7 7 7 8 8 8 8 8 8 8 8 9 9 9 9 9 9 9
8 7 7 7 7 8 8 8 9 8 8 7 7 7 8 7 7 7 7 6 6 6 6 6 6 6 6 6 7 7 7 7 8 8 8 8 8 8 8 8 8 8 8 8
8 7 7 7 7 7 7 8 8 8 7 7 7 7 7 7 7 7 6 6 6 5 5 5 5 5 5 6 6 6 6 7 7 7 7 7 7 7 8 8 8 8 8 8
7 7 8 8 8 8 8 8 8 7 7 7 8 7 7 6 6 6 6 6 5 5 5 5 4 5 5 5 5 6 6 6 6 6 7 7 7 7 7 7 7 7 7 7
8 7 8 7 8 8 8 8 8 7 8 7 7 7 7 7 7 6 6 5 5 4 4 4 4 4 4 4 5 5 5 5 6 6 6 6 6 6 6 6 6 6 6 7
7 7 7 7 8 8 7 7 7 7 7 7 7 6 7 6 6 6 5 5 4 4 3 3 3 3 3 4 4 4 4 5 5 5 5 5 5 5 5 5 5 6 6 6
7 7 7 7 8 7 7 8 8 8 7 7 7 7 7 6 6 5 5 4 4 3 3 3 3 3 3 3 4 4 4 4 4 4 4 4 5 5 5 5 5 5 5 5
6 7 6 6 7 8 7 7 8 7 7 7 7 6 6 6 5 5 4 4 4 3 3 3 3 3 3 3 3 3 3 3 3 4 4 4 4 4 4 4 4 4 4 4
6 6 6 6 7 7 8 7 8 7 6 7 7 6 5 5 4 4 4 4 3 3 3 2 2 2 3 2 3 3 3 3 3 3 3 3 3 3 3 3 3 4 4 4
5 5 5 6 6 7 7 7 7 6 6 6 6 6 5 4 4 4 4 3 3 2 2 2 2 2 2 2 2 2 2 2 2 2 2 2 3 3 3 3 3 3 3 3
5 5 6 6 6 6 6 6 6 6 6 6 6 5 5 4 4 3 3 3 2 2 2 2 2 2 2 1 1 1 1 1 2 2 2 2 2 2 2 2 2 2 3 3
6 6 6 6 6 6 7 6 6 6 6 5 5 4 4 4 3 3 2 2 2 2 1 1 1 1 1 1 1 1 1 1 1 1 1 1 2 2 2 2 2 2 2 2
6 6 6 5 6 6 6 6 6 6 5 5 4 4 4 3 3 2 2 1 1 1 1 1 0 0 0 0 0 0 0 0 0 1 1 1 1 1 1 1 1 1 1 1
6 5 4 5 6 6 6 6 5 5 4 4 4 3 3 3 2 2 1 1 1 0 0 0 -0 -0 -0 -0 -0 -0 -0 -0 -0 -0 -0 -0 0 0 0 0 -0 -0 0 0
5 4 4 5 6 5 6 6 5 4 4 4 3 3 3 2 2 1 1 1 0 0 -0 -0 -1 -1 -1 -1 -1 -1 -1 -1 -1 -1 -1 -1 -1 -1 -1 -1 -1 -1 -1 -1
Wind_Speed
5 4 5 5 6 8 7 8 10 9 6 5 5 7 8 6 5 3 3 2 2 2 1 1 3 3 3 3 4 5 6 6 5 5 5 6 7 6 5 5 7 8 9 10
3 5 6 6 5 7 7 7 7 7 5 5 4 6 5 3 1 1 1 0 1 1 2 2 4 3 2 3 2 3 5 6 6 4 4 5 6 5 5 5 5 8 9 9
3 3 4 4 4 5 6 5 4 6 6 3 2 4 4 2 3 3 2 3 2 3 3 3 4 4 3 2 2 1 3 5 6 5 4 5 5 4 4 5 5 6 8 8
2 3 3 4 4 5 5 3 4 6 4 2 2 2 3 3 4 4 4 5 4 4 3 4 5 5 4 2 2 2 2 4 5 5 4 6 6 5 5 6 6 6 7 7
1 2 3 3 4 5 4 7 6 7 3 2 2 1 1 3 4 6 6 6 6 4 4 5 4 5 4 3 2 3 2 3 4 4 4 5 5 3 4 5 6 5 5 6
2 1 2 3 5 4 6 6 6 4 1 1 1 1 2 3 5 6 7 7 7 6 5 5 5 5 4 3 3 3 4 3 4 3 4 4 5 5 5 6 6 5 4 4
1 2 1 2 4 3 4 3 2 1 0 1 2 3 3 6 6 6 7 7 6 6 5 6 6 6 5 5 5 4 4 4 3 3 3 2 3 5 5 5 6 5 4 4
1 0 1 1 2 3 3 2 2 2 1 1 3 2 3 6 8 8 8 8 8 8 7 7 7 7 6 6 5 5 4 4 4 3 3 2 1 2 2 2 3 4 4 4
1 1 1 1 2 3 3 2 2 1 1 1 1 2 4 8 8 9 9 9 9 9 9 9 9 8 7 6 6 6 4 4 4 3 3 2 2 2 2 2 2 2 2 2
2 1 1 1 1 1 2 3 3 2 1 1 1 2 2 4 6 7 8 9 9 9 10 10 9 8 8 7 6 7 6 5 4 4 3 2 2 1 1 2 2 2 2 2
2 0 1 1 1 2 2 2 3 3 1 1 1 3 4 3 4 6 8 8 8 9 9 9 8 8 8 8 8 8 7 6 6 5 4 3 2 2 1 1 1 2 2 3
2 1 1 1 2 1 2 3 3 2 3 1 1 2 5 6 6 7 8 8 8 9 8 8 8 9 9 9 9 8 7 7 6 5 4 4 3 2 2 1 1 0 1 2
2 1 2 0 1 1 1 2 3 3 2 2 1 2 4 6 7 7 7 8 8 9 9 9 9 9 9 9 8 8 8 7 6 6 6 5 4 3 2 2 2 1 1 1
2 2 1 1 1 1 1 1 2 1 1 1 2 3 2 5 5 6 6 7 7 8 9 9 9 8 8 8 8 8 8 7 6 6 6 6 5 4 4 3 3 2 2 1
2 1 1 1 2 1 1 1 1 0 1 1 2 2 3 3 3 4 5 6 7 8 9 9 9 8 8 8 8 8 7 7 6 6 5 5 5 5 4 4 3 3 2 2
1 1 2 2 1 1 2 2 1 1 1 1 1 1 4 4 4 4 5 5 6 7 8 8 9 8 8 8 7 7 7 7 6 5 5 4 5 5 5 4 3 3 2 2
1 1 1 1 1 2 3 3 3 2 2 2 2 1 3 3 3 2 3 4 5 6 7 7 7 7 7 7 7 6 6 6 6 5 5 5 5 4 4 4 4 3 3 3
2 2 1 2 2 3 2 2 2 2 2 2 3 3 2 2 2 3 4 4 5 5 6 6 6 6 6 6 6 6 6 5 5 5 5 5 5 5 4 4 4 4 3 3
2 1 1 1 2 3 3 3 2 2 2 3 4 3 3 3 2 3 5 5 4 4 4 4 5 5 5 6 6 6 6 5 5 5 6 6 5 5 4 4 4 4 4 3
2 2 1 1 2 3 2 4 2 2 2 3 4 4 3 2 0 1 2 3 3 4 4 4 4 5 5 6 6 6 5 6 6 5 5 5 5 5 4 4 4 4 4 3
3 3 3 3 3 3 4 5 3 3 3 4 4 4 3 2 1 1 2 2 3 3 3 3 4 4 5 5 5 5 5 5 6 6 5 5 5 5 4 4 4 4 4 4
5 4 5 4 4 5 6 5 4 2 3 4 4 3 3 3 3 2 2 1 2 2 3 3 3 4 4 4 5 5 5 6 6 6 6 6 5 5 4 4 4 3 3 3
5 4 3 4 4 2 5 4 3 4 4 3 3 3 4 3 1 1 1 1 1 2 2 3 3 4 4 4 4 5 5 6 6 6 6 6 6 5 4 4 4 3 3 2
4 2 1 3 4 4 5 4 3 4 4 4 4 3 3 2 1 0 0 1 1 1 2 2 3 4 5 5 5 5 5 5 6 6 6 6 5 5 4 3 3 3 3 3
4 6 4 5 3 3 5 6 5 4 4 4 3 3 2 2 1 0 0 1 1 2 2 2 3 4 5 5 5 5 5 5 5 5 6 6 5 5 4 4 3 3 3 3
6 7 7 6 5 5 4 6 6 6 5 5 4 3 2 2 1 0 1 1 1 2 2 3 4 5 5 5 5 5 5 5 5 5 5 5 4 4 4 4 4 4 4 5
Wind_Direction
199 228 250 260 262 274 284 281 285 291 291 290 278 282 288 285 270 266 276 232 214 242 234 135 132 130 139 156 161 162 167 179 171 166 166 168 164 158 161 164 166 167 167 167
231 250 275 294 299 289 276 279 285 300 304 294 283 298 300 306 298 267 276 171 62 86 56 65 90 104 119 142 146 177 170 167 166 170 176 171 160 159 163 163 170 172 170 171
242 288 314 306 305 298 291 278 290 299 310 268 288 316 343 27 51 48 46 60 60 101 95 99 99 102 106 117 127 168 181 175 162 163 164 160 149 144 162 168 169 173 172 172
273 299 308 304 306 305 298 313 303 300 317 307 299 326 342 23 49 52 66 70 62 59 79 96 98 97 98 95 103 112 176 172 158 151 160 167 162 167 178 173 166 170 169 170
290 350 328 308 313 319 297 311 293 279 280 290 268 224 339 37 36 37 50 67 63 58 81 92 86 90 86 77 83 108 135 141 132 145 166 173 165 163 165 158 160 169 170 169
251 327 330 310 308 296 294 297 291 269 253 294 292 139 34 21 20 32 42 45 43 42 59 73 73 80 78 67 61 77 110 114 113 137 153 171 173 160 165 160 167 169 168 170
240 181 182 287 310 330 329 337 345 2 97 3 15 60 49 28 29 38 42 43 38 36 46 51 51 54 59 57 53 71 85 89 93 115 131 156 169 155 165 168 171 172 175 181
280 219 114 349 346 323 309 323 345 341 13 21 20 47 54 38 37 45 50 49 44 39 41 40 40 42 44 50 50 62 68 77 81 89 86 95 95 120 141 149 155 173 186 185
341 10 100 74 334 323 324 334 307 284 299 79 102 96 75 35 39 43 46 45 40 37 38 38 38 38 44 49 45 48 52 65 74 87 93 77 83 101 129 138 136 162 182 185
343 309 258 138 249 273 306 310 315 329 15 41 104 73 27 30 35 41 43 43 38 37 37 39 38 40 44 44 43 44 47 57 59 57 68 72 76 85 121 143 161 176 190 189
284 284 298 169 58 351 347 324 314 306 333 35 76 48 35 67 59 51 48 48 42 40 38 36 37 38 40 39 38 38 39 43 42 41 37 39 50 63 70 132 182 191 201 202
308 308 278 206 110 348 320 335 330 350 336 353 94 62 41 69 64 59 54 48 45 43 39 36 39 39 37 34 31 29 33 36 31 29 24 26 28 52 57 38 49 190 217 215
318 308 320 204 134 297 304 337 326 324 348 8 70 105 49 64 61 56 53 49 44 39 36 37 36 37 33 29 26 25 27 26 24 24 23 22 27 29 35 21 13 355 295 254
309 313 349 349 357 344 300 332 341 2 42 34 90 121 70 59 57 51 49 47 46 40 36 34 33 33 31 26 24 22 20 19 19 21 20 18 16 15 16 11 360 347 333 309
288 316 354 335 332 343 325 323 4 337 274 151 109 101 114 89 66 57 51 43 39 36 34 33 27 25 24 21 18 16 13 10 12 20 19 16 10 10 10 8 357 347 339 316
262 285 306 288 236 309 317 302 237 247 249 178 123 66 87 86 70 58 50 43 38 32 30 27 23 20 18 14 11 10 8 3 7 17 13 10 9 7 3 358 351 341 324 308
240 240 283 278 247 297 278 239 203 172 154 167 193 154 100 87 72 69 65 54 40 31 24 20 17 12 9 6 4 2 358 357 2 6 6 7 2 1 355 351 349 340 327 316
285 289 279 295 307 261 188 61 129 167 186 158 136 122 103 80 61 73 73 61 41 24 15 12 7 2 1 0 360 355 350 356 358 359 1 360 356 349 344 343 339 331 323 316
328 295 290 281 281 252 167 164 153 166 224 172 163 140 98 69 70 69 63 57 43 25 10 2 1 358 357 357 353 350 350 353 354 353 350 344 339 336 338 340 334 327 324 319
288 282 273 264 266 262 157 129 101 100 227 149 151 151 129 96 158 215 58 46 35 28 17 1 358 3 1 352 349 350 348 347 344 341 337 332 330 329 328 326 322 321 317 309
188 210 218 238 253 269 129 135 141 174 212 137 136 142 142 154 155 99 66 49 37 24 11 3 5 1 348 343 347 345 341 336 331 333 333 330 331 325 320 324 321 320 321 320
190 190 198 197 228 241 147 151 185 179 116 122 118 122 126 107 87 76 66 53 26 8 7 8 0 345 339 343 347 338 332 330 333 334 331 330 328 325 323 320 318 320 325 323
211 205 205 204 210 148 153 155 131 114 126 126 124 116 125 130 127 97 63 29 7 1 355 355 345 331 332 342 344 331 326 329 331 332 328 325 322 318 317 316 313 316 317 309
212 160 231 265 234 181 173 160 147 133 134 126 121 119 124 137 140 128 33 354 341 344 345 341 333 326 325 332 334 325 324 326 324 324 322 317 313 314 315 311 306 303 299 302
206 168 208 247 234 178 198 184 170 144 133 127 122 120 129 134 155 197 278 304 322 332 333 331 317 312 315 323 325 326 325 327 320 315 312 313 312 311 314 312 302 297 288 280
197 185 191 219 201 183 198 170 158 156 163 158 149 145 138 146 179 200 275 301 319 319 318 312 310 312 313 318 320 322 322 321 316 312 311 311 312 310 309 311 317 323 307 310
Height
1464 1467 1465 1461 1460 1459 1458 1457 1454 1449 1446 1447 1445 1442 1437 1435 1434 1433 1434 1434 1434 1435 1437 1437 1438 1439 1443 1445 1448 1450 1454 1457 1460 1463 1467 1470 1475 1480 1484 1488 1492 1496 1500 1503
1463 1464 1459 1457 1457 1456 1456 1455 1453 1448 1445 1445 1443 1440 1436 1433 1432 1431 1432 1432 1432 1434 1435 1436 1437 1439 1441 1443 1446 1449 1451 1454 1457 1461 1465 1468 1473 1477 1480 1484 1489 1492 1496 1499
1462 1460 1457 1457 1457 1456 1454 1453 1452 1449 1445 1442 1443 1441 1436 1433 1432 1431 1431 1432 1434 1434 1435 1436 1437 1439 1441 1442 1444 1446 1450 1452 1456 1460 1463 1466 1470 1474 1478 1481 1484 1488 1492 1496
1459 1457 1457 1457 1457 1456 1455 1450 1449 1448 1449 1449 1445 1448 1440 1435 1434 1434 1433 1434 1435 1435 1436 1436 1437 1438 1440 1442 1444 1446 1448 1450 1454 1457 1460 1462 1465 1469 1473 1477 1480 1484 1488 1492
1459 1458 1458 1458 1457 1455 1453 1449 1448 1447 1448 1450 1445 1448 1445 1439 1438 1437 1436 1435 1436 1436 1436 1437 1438 1439 1440 1442 1443 1445 1447 1448 1451 1454 1457 1460 1463 1467 1471 1473 1477 1481 1484 1488
1459 1458 1459 1458 1456 1454 1452 1449 1446 1444 1447 1451 1443 1445 1448 1444 1443 1440 1439 1439 1438 1437 1437 1438 1439 1440 1441 1442 1442 1443 1445 1447 1450 1453 1456 1459 1462 1464 1467 1469 1473 1477 1480 1483
1459 1458 1458 1458 1456 1453 1453 1456 1456 1453 1452 1450 1441 1444 1451 1447 1445 1443 1442 1442 1441 1440 1440 1440 1440 1440 1441 1441 1441 1443 1445 1446 1448 1451 1454 1457 1459 1461 1464 1466 1470 1473 1476 1479
1462 1462 1458 1457 1458 1458 1455 1457 1462 1461 1456 1451 1445 1449 1453 1449 1447 1446 1445 1444 1443 1442 1441 1441 1440 1440 1441 1442 1443 1444 1445 1447 1449 1451 1453 1455 1456 1458 1461 1464 1466 1469 1472 1475
1462 1462 1458 1457 1457 1457 1456 1456 1455 1458 1453 1455 1451 1451 1453 1451 1450 1449 1448 1447 1446 1445 1444 1443 1442 1442 1443 1443 1444 1445 1446 1447 1449 1451 1452 1453 1455 1457 1459 1462 1463 1466 1469 1471
1463 1465 1459 1457 1457 1457 1457 1456 1457 1457 1456 1456 1451 1453 1459 1456 1454 1452 1451 1451 1450 1449 1447 1446 1445 1445 1444 1445 1445 1445 1447 1448 1449 1450 1451 1452 1454 1455 1457 1459 1461 1463 1465 1467
1462 1465 1461 1458 1460 1459 1458 1457 1456 1455 1453 1458 1459 1463 1458 1457 1456 1455 1454 1454 1453 1452 1451 1449 1448 1447 1447 1447 1447 1447 1447 1448 1449 1450 1450 1451 1452 1454 1455 1457 1458 1460 1462 1463
1462 1463 1464 1459 1458 1458 1457 1457 1457 1460 1458 1454 1462 1469 1459 1458 1458 1458 1458 1457 1457 1455 1454 1452 1451 1449 1448 1448 1448 1448 1449 1449 1449 1450 1450 1450 1452 1453 1454 1455 1455 1457 1458 1459
1463 1463 1466 1462 1464 1462 1459 1457 1456 1456 1458 1460 1463 1470 1461 1461 1461 1461 1460 1460 1460 1459 1457 1455 1453 1452 1451 1450 1450 1450 1450 1450 1450 1450 1450 1450 1451 1451 1451 1452 1453 1454 1455 1455
1463 1463 1466 1467 1464 1461 1461 1458 1457 1458 1463 1461 1462 1465 1464 1463 1463 1463 1463 1463 1462 1461 1460 1458 1456 1455 1454 1454 1453 1452 1451 1451 1451 1451 1451 1450 1450 1450 1450 1450 1451 1451 1451 1452
1463 1464 1462 1461 1459 1458 1458 1458 1458 1460 1459 1462 1461 1462 1464 1465 1465 1465 1465 1464 1464 1463 1462 1460 1459 1457 1456 1455 1454 1453 1452 1452 1452 1451 1451 1450 1450 1449 1449 1448 1448 1449 1449 1449
1463 1464 1462 1462 1458 1458 1460 1458 1458 1459 1459 1460 1461 1464 1464 1465 1466 1466 1466 1466 1466 1465 1464 1462 1461 1459 1458 1456 1455 1454 1453 1453 1452 1451 1450 1450 1449 1448 1447 1447 1446 1446 1446 1446
1463 1464 1464 1463 1457 1459 1463 1458 1458 1458 1459 1461 1463 1465 1464 1465 1466 1467 1467 1467 1467 1466 1465 1464 1462 1461 1459 1458 1456 1455 1454 1453 1452 1451 1450 1449 1448 1447 1446 1445 1444 1443 1443 1442
1464 1464 1465 1464 1462 1466 1460 1455 1455 1457 1458 1459 1461 1463 1464 1465 1466 1467 1467 1467 1467 1466 1466 1464 1463 1461 1460 1458 1457 1455 1454 1453 1451 1450 1449 1447 1446 1445 1444 1443 1442 1441 1441 1439
1465 1466 1466 1466 1464 1457 1458 1456 1456 1458 1459 1458 1460 1462 1464 1465 1466 1467 1467 1467 1467 1467 1466 1464 1463 1461 1460 1458 1457 1455 1454 1452 1450 1449 1447 1446 1445 1443 1442 1440 1439 1439 1437 1436
1466 1466 1469 1465 1466 1462 1456 1456 1456 1459 1461 1458 1459 1461 1463 1464 1467 1468 1467 1467 1467 1466 1465 1463 1462 1460 1459 1458 1456 1454 1453 1451 1449 1448 1446 1444 1443 1441 1439 1438 1437 1436 1434 1433
1467 1467 1469 1467 1465 1457 1455 1455 1457 1463 1460 1458 1458 1460 1462 1463 1466 1466 1466 1466 1465 1465 1464 1462 1461 1459 1458 1456 1455 1453 1451 1449 1448 1446 1444 1442 1440 1439 1437 1435 1434 1433 1431 1430
1463 1464 1464 1463 1464 1462 1454 1455 1458 1457 1456 1456 1458 1460 1461 1462 1463 1464 1464 1464 1463 1463 1462 1461 1460 1458 1457 1455 1453 1451 1449 1448 1446 1444 1441 1439 1437 1436 1434 1432 1431 1430 1428 1427
1456 1456 1456 1456 1457 1451 1451 1452 1453 1454 1455 1456 1457 1459 1460 1461 1462 1462 1462 1462 1461 1461 1460 1459 1458 1456 1455 1453 1451 1449 1447 1445 1443 1441 1438 1436 1435 1433 1431 1429 1427 1426 1425 1424
1452 1451 1453 1452 1449 1449 1450 1451 1452 1453 1454 1455 1456 1457 1458 1459 1460 1460 1460 1460 1459 1458 1457 1456 1455 1453 1452 1450 1449 1447 1444 1442 1440 1438 1436 1434 1432 1430 1428 1426 1425 1423 1422 1421
1447 1450 1451 1450 1447 1447 1447 1448 1450 1451 1453 1454 1455 1456 1457 1457 1458 1458 1458 1457 1457 1456 1455 1454 1452 1451 1449 1447 1445 1443 1441 1439 1437 1435 1433 1431 1429 1427 1425 1423 1422 1421 1420 1420
1442 1444 1447 1445 1441 1443 1443 1444 1447 1449 1450 1452 1453 1454 1455 1455 1456 1456 1455 1455 1454 1453 1452 1451 1449 1448 1446 1444 1442 1440 1438 1436 1434 1432 1430 1428 1426 1424 1422 1420 1419 1418 1417 1416